Retour au catalogue

ATLAS 5 CENTAUR DEB

LostHEO
NORAD 55858·DEBRIS·🇺🇸 United States

Lancé Oct 17, 2018 depuis Cape Canaveral Space Force Station

Loading…

Prochains Passages (prochaines 24 heures)

TLE

PériméSource: Space-Track

Époque: May 9, 2025, 23:31 UTC

1 55858U 18079HL  25129.97992772 -.00000076  00000-0  00000-0 0  9991
2 55858  13.2508  67.4437 4745095 244.8244  59.3754  1.80043268 23386

Suivez ATLAS 5 CENTAUR DEB en temps réel avec AllMySat

Download on the App Store